Time,TemperatureF,DewpointF,PressureIn,WindDirection,WindDirectionDegrees,WindSpeedMPH,WindSpeedGustMPH,Humidity,HourlyPrecipIn,Conditions,Clouds,dailyrainin,SolarRadiationWatts/m^2,SoftwareType,DateUTC
2013-11-22 00:02:00,56.0,52.0,-100.00,ENE,59,7.0,10.0,87,0.00,,,0.00,0.000000,,2013-11-22 05:02:00,
2013-11-22 00:22:00,57.0,53.0,-100.00,ENE,61,7.0,11.0,87,0.00,,,0.00,0.000000,,2013-11-22 05:22:00,
2013-11-22 00:32:00,57.0,53.0,-100.00,ENE,61,7.0,11.0,87,0.00,,,0.00,0.000000,,2013-11-22 05:32:00,
2013-11-22 00:43:00,57.0,53.0,-100.00,ENE,61,7.0,11.0,87,0.00,,,0.00,0.000000,,2013-11-22 05:43:00,
2013-11-22 00:53:00,57.0,53.0,-100.00,ENE,61,7.0,11.0,87,0.00,,,0.00,0.000000,,2013-11-22 05:53:00,
2013-11-22 01:02:00,57.0,53.0,-100.00,ENE,61,7.0,11.0,87,0.00,,,0.00,0.000000,,2013-11-22 06:02:00,
2013-11-22 01:22:00,56.0,52.0,-100.00,NE,45,6.0,11.0,88,0.00,,,0.00,0.000000,,2013-11-22 06:22:00,
2013-11-22 01:32:00,56.0,52.0,-100.00,NE,45,6.0,11.0,88,0.00,,,0.00,0.000000,,2013-11-22 06:32:00,
2013-11-22 01:42:00,56.0,52.0,-100.00,NE,45,6.0,11.0,88,0.00,,,0.00,0.000000,,2013-11-22 06:42:00,
2013-11-22 01:52:00,56.0,52.0,-100.00,NE,45,6.0,11.0,88,0.00,,,0.00,0.000000,,2013-11-22 06:52:00,
2013-11-22 02:02:00,56.0,52.0,-100.00,NE,45,6.0,11.0,88,0.00,,,0.00,0.000000,,2013-11-22 07:02:00,
2013-11-22 02:42:00,56.0,53.0,-100.00,ENE,59,8.0,11.0,89,0.00,,,0.00,0.000000,,2013-11-22 07:42:00,
2013-11-22 02:52:00,56.0,53.0,-100.00,ENE,59,8.0,11.0,89,0.00,,,0.00,0.000000,,2013-11-22 07:52:00,
2013-11-22 03:01:00,56.0,53.0,-100.00,ENE,59,8.0,11.0,89,0.00,,,0.00,0.000000,,2013-11-22 08:01:00,
2013-11-22 03:22:00,56.0,53.0,-100.00,ENE,77,6.0,12.0,91,0.00,,,0.00,0.000000,,2013-11-22 08:22:00,
2013-11-22 03:32:00,56.0,53.0,-100.00,ENE,77,6.0,12.0,91,0.00,,,0.00,0.000000,,2013-11-22 08:32:00,
2013-11-22 03:42:00,56.0,53.0,-100.00,ENE,77,6.0,12.0,91,0.00,,,0.00,0.000000,,2013-11-22 08:42:00,
2013-11-22 03:52:00,56.0,53.0,-100.00,ENE,77,6.0,12.0,91,0.00,,,0.00,0.000000,,2013-11-22 08:52:00,
2013-11-22 04:02:00,56.0,53.0,-100.00,ENE,77,6.0,12.0,91,0.00,,,0.00,0.000000,,2013-11-22 09:02:00,
2013-11-22 04:03:00,56.0,54.0,-100.00,East,95,6.0,10.0,94,0.00,,,0.00,0.000000,,2013-11-22 09:03:00,
2013-11-22 04:22:00,56.0,54.0,-100.00,East,95,6.0,10.0,94,0.00,,,0.00,0.000000,,2013-11-22 09:22:00,
2013-11-22 04:34:00,56.0,54.0,-100.00,East,95,6.0,10.0,94,0.00,,,0.00,0.000000,,2013-11-22 09:34:00,
2013-11-22 04:43:00,56.0,54.0,-100.00,East,95,6.0,10.0,94,0.00,,,0.00,0.000000,,2013-11-22 09:43:00,
2013-11-22 04:53:00,56.0,54.0,-100.00,East,95,6.0,10.0,94,0.00,,,0.00,0.000000,,2013-11-22 09:53:00,
2013-11-22 05:43:00,55.0,54.0,-100.00,NE,35,6.0,9.0,95,0.00,,,0.00,0.000000,,2013-11-22 10:43:00,
2013-11-22 05:53:00,55.0,54.0,-100.00,NE,35,6.0,9.0,95,0.00,,,0.00,0.000000,,2013-11-22 10:53:00,
2013-11-22 06:02:00,55.0,54.0,-100.00,NE,35,6.0,9.0,95,0.00,,,0.00,0.000000,,2013-11-22 11:02:00,
2013-11-22 06:43:00,55.0,54.0,-100.00,NE,45,6.0,10.0,96,0.00,,,0.00,0.000000,,2013-11-22 11:43:00,
2013-11-22 06:52:00,55.0,54.0,-100.00,NE,45,6.0,10.0,96,0.00,,,0.00,0.000000,,2013-11-22 11:52:00,
2013-11-22 07:02:00,55.0,54.0,-100.00,NE,45,6.0,10.0,96,0.00,,,0.00,0.000000,,2013-11-22 12:02:00,
2013-11-22 07:42:00,55.0,54.0,-100.00,NE,52,6.0,9.0,98,0.00,,,0.00,0.000000,,2013-11-22 12:42:00,
2013-11-22 07:52:00,55.0,54.0,-100.00,NE,52,6.0,9.0,98,0.00,,,0.00,0.000000,,2013-11-22 12:52:00,
2013-11-22 08:02:00,55.0,54.0,-100.00,NE,52,6.0,9.0,98,0.00,,,0.00,0.000000,,2013-11-22 13:02:00,
2013-11-22 08:42:00,55.0,55.0,-100.00,NE,47,5.0,8.0,99,0.00,,,0.00,12.000000,,2013-11-22 13:42:00,
2013-11-22 08:52:00,55.0,55.0,-100.00,NE,47,5.0,8.0,99,0.00,,,0.00,12.000000,,2013-11-22 13:52:00,
2013-11-22 09:02:00,55.0,55.0,-100.00,NE,47,5.0,8.0,99,0.00,,,0.00,12.000000,,2013-11-22 14:02:00,
2013-11-22 09:42:00,56.0,56.0,-100.00,NE,41,5.0,9.0,99,0.00,,,0.00,58.000000,,2013-11-22 14:42:00,
2013-11-22 09:52:00,56.0,56.0,-100.00,NE,41,5.0,9.0,99,0.00,,,0.00,58.000000,,2013-11-22 14:52:00,
2013-11-22 10:02:00,56.0,56.0,-100.00,NE,41,5.0,9.0,99,0.00,,,0.00,58.000000,,2013-11-22 15:02:00,
2013-11-22 10:03:00,57.0,56.0,-100.00,NNE,32,7.0,9.0,98,0.00,,,0.00,146.000000,,2013-11-22 15:03:00,
2013-11-22 10:44:00,57.0,56.0,-100.00,NNE,32,7.0,9.0,98,0.00,,,0.00,146.000000,,2013-11-22 15:44:00,
2013-11-22 10:54:00,57.0,56.0,-100.00,NNE,32,7.0,9.0,98,0.00,,,0.00,146.000000,,2013-11-22 15:54:00,
2013-11-22 11:03:00,59.0,57.0,-100.00,NE,46,6.0,9.0,94,0.00,,,0.00,197.000000,,2013-11-22 16:03:00,
2013-11-22 11:44:00,59.0,57.0,-100.00,NE,46,6.0,9.0,94,0.00,,,0.00,197.000000,,2013-11-22 16:44:00,
2013-11-22 11:53:00,59.0,57.0,-100.00,NE,46,6.0,9.0,94,0.00,,,0.00,197.000000,,2013-11-22 16:53:00,
2013-11-22 12:42:00,62.0,58.0,-100.00,ENE,72,4.0,7.0,88,0.00,,,0.00,255.000000,,2013-11-22 17:42:00,
2013-11-22 12:52:00,62.0,58.0,-100.00,ENE,72,4.0,7.0,88,0.00,,,0.00,255.000000,,2013-11-22 17:52:00,
2013-11-22 13:02:00,62.0,58.0,-100.00,ENE,72,4.0,7.0,88,0.00,,,0.00,255.000000,,2013-11-22 18:02:00,
2013-11-22 13:42:00,68.0,60.0,-100.00,West,277,3.0,6.0,75,0.00,,,0.00,585.000000,,2013-11-22 18:42:00,
2013-11-22 13:52:00,68.0,60.0,-100.00,West,277,3.0,6.0,75,0.00,,,0.00,585.000000,,2013-11-22 18:52:00,
2013-11-22 14:01:00,68.0,60.0,-100.00,West,277,3.0,6.0,75,0.00,,,0.00,585.000000,,2013-11-22 19:01:00,
2013-11-22 14:42:00,71.0,61.0,-100.00,SE,126,5.0,8.0,71,0.00,,,0.00,637.000000,,2013-11-22 19:42:00,
2013-11-22 14:53:00,71.0,61.0,-100.00,SE,126,5.0,8.0,71,0.00,,,0.00,637.000000,,2013-11-22 19:53:00,
2013-11-22 15:02:00,71.0,61.0,-100.00,SE,126,5.0,8.0,71,0.00,,,0.00,637.000000,,2013-11-22 20:02:00,
2013-11-22 15:22:00,72.0,62.0,-100.00,ENE,77,4.0,9.0,70,0.00,,,0.00,580.000000,,2013-11-22 20:22:00,
2013-11-22 15:32:00,72.0,62.0,-100.00,ENE,77,4.0,9.0,70,0.00,,,0.00,580.000000,,2013-11-22 20:32:00,
2013-11-22 15:42:00,72.0,62.0,-100.00,ENE,77,4.0,9.0,70,0.00,,,0.00,580.000000,,2013-11-22 20:42:00,
2013-11-22 15:52:00,72.0,62.0,-100.00,ENE,77,4.0,9.0,70,0.00,,,0.00,580.000000,,2013-11-22 20:52:00,
2013-11-22 16:02:00,72.0,62.0,-100.00,ENE,77,4.0,9.0,70,0.00,,,0.00,580.000000,,2013-11-22 21:02:00,
2013-11-22 16:03:00,73.0,62.0,-100.00,NNW,343,2.0,6.0,68,0.00,,,0.00,410.000000,,2013-11-22 21:03:00,
2013-11-22 16:22:00,73.0,62.0,-100.00,NNW,343,2.0,6.0,68,0.00,,,0.00,410.000000,,2013-11-22 21:22:00,
2013-11-22 16:33:00,73.0,62.0,-100.00,NNW,343,2.0,6.0,68,0.00,,,0.00,410.000000,,2013-11-22 21:33:00,
2013-11-22 16:43:00,73.0,62.0,-100.00,NNW,343,2.0,6.0,68,0.00,,,0.00,410.000000,,2013-11-22 21:43:00,
2013-11-22 16:53:00,73.0,62.0,-100.00,NNW,343,2.0,6.0,68,0.00,,,0.00,410.000000,,2013-11-22 21:53:00,
2013-11-22 17:23:00,71.0,62.0,-100.00,East,94,1.0,6.0,73,0.00,,,0.00,149.000000,,2013-11-22 22:23:00,
2013-11-22 17:33:00,71.0,62.0,-100.00,East,94,1.0,6.0,73,0.00,,,0.00,149.000000,,2013-11-22 22:33:00,
2013-11-22 17:42:00,71.0,62.0,-100.00,East,94,1.0,6.0,73,0.00,,,0.00,149.000000,,2013-11-22 22:42:00,
2013-11-22 17:53:00,71.0,62.0,-100.00,East,94,1.0,6.0,73,0.00,,,0.00,149.000000,,2013-11-22 22:53:00,
2013-11-22 18:02:00,71.0,62.0,-100.00,East,94,1.0,6.0,73,0.00,,,0.00,149.000000,,2013-11-22 23:02:00,
2013-11-22 18:22:00,67.0,62.0,-100.00,SSE,164,3.0,5.0,85,0.00,,,0.00,9.000000,,2013-11-22 23:22:00,
2013-11-22 18:33:00,67.0,62.0,-100.00,SSE,164,3.0,5.0,85,0.00,,,0.00,9.000000,,2013-11-22 23:33:00,
2013-11-22 18:42:00,67.0,62.0,-100.00,SSE,164,3.0,5.0,85,0.00,,,0.00,9.000000,,2013-11-22 23:42:00,
2013-11-22 18:53:00,67.0,62.0,-100.00,SSE,164,3.0,5.0,85,0.00,,,0.00,9.000000,,2013-11-22 23:53:00,
2013-11-22 19:02:00,67.0,62.0,-100.00,SSE,164,3.0,5.0,85,0.00,,,0.00,9.000000,,2013-11-23 00:02:00,
2013-11-22 19:22:00,64.0,61.0,-100.00,ENE,61,0.0,5.0,91,0.00,,,0.00,0.000000,,2013-11-23 00:22:00,
2013-11-22 19:32:00,64.0,61.0,-100.00,ENE,61,0.0,5.0,91,0.00,,,0.00,0.000000,,2013-11-23 00:32:00,
2013-11-22 19:42:00,64.0,61.0,-100.00,ENE,61,0.0,5.0,91,0.00,,,0.00,0.000000,,2013-11-23 00:42:00,
2013-11-22 19:52:00,64.0,61.0,-100.00,ENE,61,0.0,5.0,91,0.00,,,0.00,0.000000,,2013-11-23 00:52:00,
2013-11-22 20:02:00,64.0,61.0,-100.00,ENE,61,0.0,5.0,91,0.00,,,0.00,0.000000,,2013-11-23 01:02:00,
2013-11-22 20:22:00,62.0,61.0,-100.00,ESE,114,0.0,2.0,97,0.00,,,0.00,0.000000,,2013-11-23 01:22:00,
2013-11-22 20:32:00,62.0,61.0,-100.00,ESE,114,0.0,2.0,97,0.00,,,0.00,0.000000,,2013-11-23 01:32:00,
2013-11-22 20:42:00,62.0,61.0,-100.00,ESE,114,0.0,2.0,97,0.00,,,0.00,0.000000,,2013-11-23 01:42:00,
2013-11-22 20:53:00,62.0,61.0,-100.00,ESE,114,0.0,2.0,97,0.00,,,0.00,0.000000,,2013-11-23 01:53:00,
2013-11-22 21:02:00,62.0,61.0,-100.00,ESE,114,0.0,2.0,97,0.00,,,0.00,0.000000,,2013-11-23 02:02:00,
2013-11-22 21:22:00,60.0,59.0,-100.00,North,353,1.0,3.0,97,0.00,,,0.00,0.000000,,2013-11-23 02:22:00,
2013-11-22 21:32:00,60.0,59.0,-100.00,North,353,1.0,3.0,97,0.00,,,0.00,0.000000,,2013-11-23 02:32:00,
2013-11-22 21:42:00,60.0,59.0,-100.00,North,353,1.0,3.0,97,0.00,,,0.00,0.000000,,2013-11-23 02:42:00,
2013-11-22 21:53:00,60.0,59.0,-100.00,North,353,1.0,3.0,97,0.00,,,0.00,0.000000,,2013-11-23 02:53:00,
2013-11-22 22:02:00,60.0,59.0,-100.00,North,353,1.0,3.0,97,0.00,,,0.00,0.000000,,2013-11-23 03:02:00,
2013-11-22 22:03:00,60.0,59.0,-100.00,SE,130,2.0,5.0,96,0.00,,,0.00,0.000000,,2013-11-23 03:03:00,
2013-11-22 22:22:00,60.0,59.0,-100.00,SE,130,2.0,5.0,96,0.00,,,0.00,0.000000,,2013-11-23 03:22:00,
2013-11-22 22:33:00,60.0,59.0,-100.00,SE,130,2.0,5.0,96,0.00,,,0.00,0.000000,,2013-11-23 03:33:00,
2013-11-22 22:43:00,60.0,59.0,-100.00,SE,130,2.0,5.0,96,0.00,,,0.00,0.000000,,2013-11-23 03:43:00,
2013-11-22 22:53:00,60.0,59.0,-100.00,SE,130,2.0,5.0,96,0.00,,,0.00,0.000000,,2013-11-23 03:53:00,
2013-11-22 23:03:00,59.0,58.0,-100.00,NE,39,2.0,5.0,97,0.00,,,0.00,0.000000,,2013-11-23 04:03:00,
2013-11-22 23:23:00,59.0,58.0,-100.00,NE,39,2.0,5.0,97,0.00,,,0.00,0.000000,,2013-11-23 04:23:00,
2013-11-22 23:33:00,59.0,58.0,-100.00,NE,39,2.0,5.0,97,0.00,,,0.00,0.000000,,2013-11-23 04:33:00,
2013-11-22 23:43:00,59.0,58.0,-100.00,NE,39,2.0,5.0,97,0.00,,,0.00,0.000000,,2013-11-23 04:43:00,
2013-11-22 23:53:00,59.0,58.0,-100.00,NE,39,2.0,5.0,97,0.00,,,0.00,0.000000,,2013-11-23 04:53:00,